Regional Weather Roundup
Issued by NWS

Home | Current Version | Previous Version | Graphics & Text | Print | Product List | Glossary On
Versions: 1 2 3 4 5 6 7 8 9 10 11 12 13 14 15 16 17 18 19 20 21 22 23 24 25 26 27 28 29 30 31 32 33 34 35 36 37 38 39 40 41 42 43 44 45 46 47 48 49 50
000
ASUS43 KIND 280859
RWRIN

WEATHER ROUNDUP FOR INDIANA
NATIONAL WEATHER SERVICE INDIANAPOLIS IN
400 AM EST TUE FEB 28 2017

NOTE: "FAIR" INDICATES FEW OR NO CLOUDS BELOW 12,000 FEET WITH NO
SIGNIFICANT WEATHER AND/OR OBSTRUCTIONS TO VISIBILITY.

* - STATION DOES NOT REPORT WEATHER SUCH AS PRECIPITATION OR FOG.

+ - STATION NOT QUALITY CONTROLLED BY THE NATIONAL WEATHER SERVICE.
    USE DATA WITH CAUTION...ESPECIALLY DEWPOINT AND RELATIVE
    HUMIDITY OBSERVATIONS.

INZ001>003-010>013-019-020-281000-
NORTHWEST INDIANA

CITY           SKY/WX    TMP DP  RH WIND       PRES   REMARKS
KNOX *+        CLOUDY    45  32  61 S22G28    29.96F

$$

LMZ046-743>745-281000-
SOUTHERN LAKE MICHIGAN

STATION/POSITION TIME  TEMP    WIND        PRES    WAVE
                       AIR SEA DIR/SP/G            HT
                 (UTC) (F)     (DEG/KT/KT) (MB)    (FT)
BURNS HARBOR     0840   47     160/ 14/ 20 1014.6F
MICHIGAN CITY    0830   46     120/ 14/ 18   N/A

$$

INZ004-005-014>016-021>024-281000-
NORTH CENTRAL INDIANA

CITY           SKY/WX    TMP DP  RH WIND       PRES   REMARKS
GOSHEN         CLOUDY    43  38  82 SE15      30.03F
PERU/GRISSOM   CLOUDY    45  45 100 SE12      30.02F
SOUTH BEND     CLOUDY    43  40  89 SE13      30.00F

$$

INZ006>009-017-018-025>027-281000-
NORTHEAST INDIANA

CITY           SKY/WX    TMP DP  RH WIND       PRES   REMARKS
ANGOLA *+      MOCLDY    39  34  81 SE7       30.07F
FORT WAYNE     LGT RAIN  42  38  85 CALM      30.10R
KENDALLVILLE + RAIN      41  40  96 SE9       30.08R

$$

INZ028-029-035-036-043>045-051>053-281000-
WEST CENTRAL INDIANA

CITY           SKY/WX    TMP DP  RH WIND       PRES   REMARKS
GREENCASTLE +  RAIN      45  41  87 S5        30.05R
LAFAYETTE      CLOUDY    47  43  86 SE10      29.98F
TERRE HAUTE    RAIN      50  45  83 S10       30.01R

$$

INZ030>032-037>040-046>048-054>057-064-065-281000-
CENTRAL INDIANA

CITY           SKY/WX    TMP DP  RH WIND       PRES   REMARKS
GREENWOOD *+   CLOUDY    46  42  83 SE8       30.04F
INDIANAPOLIS   CLOUDY    46  40  79 SE8       30.04F
-EAGLE CREEK   CLOUDY    47  40  76 S3        30.04S
KOKOMO +       LGT RAIN  44  41  89 SE13      30.03F
MT COMFORT *+  CLOUDY    46  41  81 S9        30.04S
SHELBYVILLE    CLOUDY    48  41  76 SE10      30.04F

$$

INZ033-034-041-042-049-050-058-059-281000-
EAST CENTRAL INDIANA

CITY           SKY/WX    TMP DP  RH WIND       PRES   REMARKS
MUNCIE         CLOUDY    48  41  76 S8        30.05S

$$

INZ060-061-067>069-081>083-085>088-281000-
SOUTHWEST INDIANA

CITY           SKY/WX    TMP DP  RH WIND       PRES   REMARKS
EVANSVILLE     CLOUDY    52  47  83 S9        30.03F
HUNTINGBURG *+ CLOUDY    52  48  87 S7        30.03F

$$

INZ062-063-066-070>080-084-089>092-281000-
SOUTH CENTRAL AND SOUTHEAST INDIANA

CITY           SKY/WX    TMP DP  RH WIND       PRES   REMARKS
BLOOMINGTON    LGT RAIN  50  43  77 SW9G16    30.04R
MADISON *+     CLOUDY    46  41  81 S7        30.09F
SEYMOUR +      CLOUDY    50  43  76 S9        30.07F

$$




USA.gov is the U.S. government's official web portal to all federal, state and local government web resources and services.